Date,Time,Wetness (Wet Dry or Ice),Wind Speed (m/s),Temperature (C),Humidity (%),Pressure (mb),Radiation (W/m^2)
2019-05-19,04:20:00,DRY,3.40,12.93,25.0,773.00,1.1
2019-05-19,04:25:00,DRY,3.10,12.85,25.0,773.00,0.7
2019-05-19,04:30:00,DRY,3.27,12.53,25.0,773.00,1.2
2019-05-19,04:35:00,DRY,4.20,12.60,25.0,773.00,1.1
2019-05-19,04:40:00,DRY,3.90,12.80,24.3,773.00,1.2
2019-05-19,04:45:00,DRY,4.10,12.70,24.5,773.00,1.2
2019-05-19,04:50:00,DRY,3.43,12.67,24.7,773.00,1.2
2019-05-19,04:55:00,DRY,3.05,12.70,24.0,773.00,0.9
2019-05-19,05:00:00,DRY,3.20,12.63,24.0,773.00,1.6
2019-05-19,05:05:00,DRY,4.55,12.70,24.0,773.00,1.1
2019-05-19,05:10:00,DRY,3.30,12.63,24.0,773.00,1.4
2019-05-19,05:15:00,DRY,2.55,12.45,24.0,773.00,1.4
2019-05-19,05:20:00,DRY,2.30,12.43,24.0,773.00,2.0
2019-05-19,05:25:00,DRY,2.20,12.40,24.0,773.00,1.0
2019-05-19,05:30:00,DRY,2.00,12.70,23.0,773.00,1.6
2019-05-19,05:35:00,DRY,1.20,12.75,23.0,773.00,2.4
2019-05-19,05:40:00,DRY,2.77,12.47,23.0,773.00,1.5
2019-05-19,05:45:00,DRY,1.85,12.65,23.0,773.00,0.9
2019-05-19,05:50:00,DRY,1.13,12.50,23.0,773.00,1.0
2019-05-19,05:55:00,DRY,1.20,12.45,23.0,773.00,1.8
2019-05-19,06:00:00,DRY,1.63,12.60,23.0,773.00,1.9
2019-05-19,06:05:00,DRY,1.10,12.55,23.0,773.00,3.3
2019-05-19,06:10:00,DRY,0.77,12.40,24.0,773.00,3.3
2019-05-19,06:15:00,DRY,1.10,12.15,25.0,773.00,5.4
2019-05-19,06:20:00,DRY,0.90,12.17,24.0,773.00,8.8
2019-05-19,06:25:00,DRY,0.60,12.40,23.0,773.00,13.7
2019-05-19,06:30:00,DRY,1.37,12.60,22.7,773.00,22.7
2019-05-19,06:35:00,DRY,2.40,12.75,21.5,773.00,42.3
2019-05-19,06:40:00,DRY,1.43,13.03,21.0,773.00,60.2
2019-05-19,06:45:00,DRY,0.50,13.25,21.0,773.50,84.2
2019-05-19,06:50:00,DRY,0.33,13.43,21.0,773.00,103.1
2019-05-19,06:55:00,DRY,1.30,13.40,22.0,773.00,126.1
2019-05-19,07:00:00,DRY,1.87,13.50,21.3,773.00,141.8
2019-05-19,07:05:00,DRY,2.10,13.45,22.0,773.00,162.1
2019-05-19,07:10:00,DRY,1.83,13.43,23.0,773.00,183.6
2019-05-19,07:15:00,DRY,2.40,13.50,21.5,773.00,204.6
2019-05-19,07:20:00,DRY,2.00,13.63,22.7,773.00,225.5
2019-05-19,07:25:00,DRY,2.20,13.70,22.5,773.00,248.1
2019-05-19,07:30:00,DRY,2.40,13.87,22.0,773.00,268.9
2019-05-19,07:35:00,DRY,2.90,13.90,21.5,773.00,291.1
2019-05-19,07:40:00,DRY,2.57,14.10,21.3,773.00,312.9
2019-05-19,07:45:00,DRY,2.20,14.25,22.5,773.00,335.8
2019-05-19,07:50:00,DRY,2.47,14.37,22.7,773.00,356.3
2019-05-19,07:55:00,DRY,2.30,14.55,22.5,773.00,378.2
2019-05-19,08:00:00,DRY,2.73,14.57,21.7,773.00,400.3
2019-05-19,08:05:00,DRY,2.75,14.55,23.0,773.00,421.1
2019-05-19,08:10:00,DRY,2.43,14.83,22.7,773.33,442.9
2019-05-19,08:15:00,DRY,2.55,14.80,21.0,773.00,463.6
2019-05-19,08:20:00,DRY,3.37,14.77,21.7,773.33,484.4
2019-05-19,08:25:00,DRY,2.85,14.80,22.0,773.00,505.5
2019-05-19,08:30:00,DRY,3.23,14.83,21.3,773.33,526.9
2019-05-19,08:35:00,DRY,2.95,15.05,21.5,773.50,546.5
2019-05-19,08:40:00,DRY,3.57,15.03,21.0,773.67,567.5
2019-05-19,08:45:00,DRY,2.65,15.15,20.0,773.50,587.5
2019-05-19,08:50:00,DRY,3.30,15.17,21.3,773.00,607.3
2019-05-19,08:55:00,DRY,2.35,14.45,21.0,773.00,627.1
2019-05-19,09:00:00,DRY,1.93,14.40,23.3,773.00,645.7
2019-05-19,09:05:00,DRY,1.95,14.20,22.5,773.00,664.0
2019-05-19,09:10:00,DRY,1.43,14.10,22.0,773.00,683.8
2019-05-19,09:15:00,DRY,1.55,14.15,22.5,773.00,702.0
2019-05-19,09:20:00,DRY,1.57,13.93,22.3,773.00,722.7
2019-05-19,09:25:00,DRY,1.75,14.00,21.0,773.00,739.6
2019-05-19,09:30:00,DRY,2.30,14.43,21.3,773.00,756.8
2019-05-19,09:35:00,DRY,2.70,14.70,22.0,773.00,773.3
2019-05-19,09:40:00,DRY,3.23,14.90,20.3,773.33,790.9
2019-05-19,09:45:00,DRY,2.90,15.35,20.5,774.00,806.4
2019-05-19,09:50:00,DRY,2.73,14.73,20.7,774.00,823.4
2019-05-19,09:55:00,DRY,2.85,14.80,21.0,774.00,839.5
2019-05-19,10:00:00,DRY,2.80,14.77,21.0,774.00,853.9
2019-05-19,10:05:00,DRY,2.45,14.60,22.0,774.00,867.0
2019-05-19,10:10:00,DRY,2.70,14.47,22.0,774.00,884.0
2019-05-19,10:15:00,DRY,2.10,15.25,21.5,774.00,896.5
2019-05-19,10:20:00,DRY,3.57,15.40,19.3,774.00,911.5
2019-05-19,10:25:00,DRY,2.95,15.35,22.0,774.00,925.2
2019-05-19,10:30:00,DRY,2.63,14.97,22.3,774.00,940.2
2019-05-19,10:35:00,DRY,3.50,15.30,23.0,774.00,953.3
2019-05-19,10:40:00,DRY,2.93,14.93,26.7,774.00,965.2
2019-05-19,10:45:00,DRY,2.10,15.70,27.0,774.00,976.3
2019-05-19,10:50:00,DRY,2.97,15.63,22.0,774.00,988.5
2019-05-19,10:55:00,DRY,3.30,16.10,25.0,774.00,998.8
2019-05-19,11:00:00,DRY,2.97,16.70,25.7,774.00,1010.4
2019-05-19,11:05:00,DRY,4.10,15.95,22.5,774.00,1021.6
2019-05-19,11:10:00,DRY,4.03,15.60,26.7,774.00,1030.5
2019-05-19,11:15:00,DRY,4.25,16.40,24.0,774.00,1040.5
2019-05-19,11:20:00,DRY,3.53,16.30,27.7,774.00,1048.2
2019-05-19,11:25:00,DRY,3.80,15.95,25.5,774.00,1057.6
2019-05-19,11:30:00,DRY,3.80,15.83,25.0,774.00,1065.9
2019-05-19,11:35:00,DRY,4.00,15.85,24.5,774.00,1072.8
2019-05-19,11:40:00,DRY,3.80,15.37,27.7,774.00,1082.0
2019-05-19,11:45:00,DRY,3.10,15.65,30.5,774.00,1086.3
2019-05-19,11:50:00,DRY,2.60,15.17,31.3,774.00,1093.4
2019-05-19,11:55:00,DRY,3.45,16.10,29.5,774.00,1101.2
2019-05-19,12:00:00,DRY,3.27,15.83,31.7,774.00,1106.2
2019-05-19,12:05:00,DRY,3.85,15.80,30.5,774.00,1110.1
2019-05-19,12:10:00,DRY,3.63,15.47,31.3,774.00,1115.2
2019-05-19,12:15:00,DRY,2.90,15.75,28.0,774.00,1118.4
2019-05-19,12:20:00,DRY,4.13,15.67,31.0,774.00,1123.7
2019-05-19,12:25:00,DRY,3.65,16.10,33.5,774.00,1126.4
2019-05-19,12:30:00,DRY,3.20,16.30,31.3,774.00,1127.1
2019-05-19,12:35:00,DRY,2.95,16.05,34.5,774.00,1129.0
2019-05-19,12:40:00,DRY,3.90,16.17,35.0,774.00,1132.4
2019-05-19,12:45:00,DRY,3.60,16.35,34.5,774.00,1134.8
2019-05-19,12:50:00,DRY,3.33,15.93,29.7,774.00,1136.7
2019-05-19,12:55:00,DRY,3.75,15.45,27.5,774.00,1136.8
2019-05-19,13:00:00,DRY,5.03,15.70,21.7,774.00,1139.3
2019-05-19,13:05:00,DRY,3.95,15.45,19.5,774.00,1140.0
2019-05-19,13:10:00,DRY,4.47,15.43,19.3,774.00,1139.1
2019-05-19,13:15:00,DRY,4.60,15.40,18.5,774.00,1138.9
2019-05-19,13:20:00,DRY,3.50,15.40,17.7,774.00,1138.6
2019-05-19,13:25:00,DRY,4.90,14.80,24.5,774.00,1138.9
2019-05-19,13:30:00,DRY,2.80,14.80,17.0,774.00,1136.3
2019-05-19,13:35:00,DRY,3.60,14.40,27.0,774.00,1134.2
2019-05-19,13:40:00,DRY,3.23,14.87,31.7,774.00,1133.8
2019-05-19,13:45:00,DRY,4.35,14.65,36.0,774.00,1131.0
2019-05-19,13:50:00,DRY,3.23,14.67,31.0,774.00,1128.8
2019-05-19,13:55:00,DRY,3.50,14.75,29.5,774.00,1125.0
2019-05-19,14:00:00,DRY,3.60,14.80,30.3,774.00,1119.4
2019-05-19,14:05:00,DRY,4.25,14.75,32.0,774.00,1116.1
2019-05-19,14:10:00,DRY,4.07,15.13,25.3,774.00,1111.3
2019-05-19,14:15:00,DRY,4.65,15.65,26.0,774.00,1106.8
2019-05-19,14:20:00,DRY,4.07,14.57,30.7,774.00,1099.9
2019-05-19,14:25:00,DRY,4.10,14.95,33.0,774.00,1093.6
2019-05-19,14:30:00,DRY,3.63,14.43,36.3,774.00,1086.6
2019-05-19,14:35:00,DRY,4.60,14.60,39.0,773.00,1078.3
2019-05-19,14:40:00,DRY,4.13,14.20,35.7,773.33,1072.3
2019-05-19,14:45:00,DRY,4.15,14.45,34.5,773.00,1063.7
2019-05-19,14:50:00,DRY,4.80,14.30,34.3,773.00,1053.4
2019-05-19,14:55:00,DRY,4.80,14.10,34.5,773.00,1046.0
2019-05-19,15:00:00,DRY,4.57,14.40,33.0,773.00,1035.6
2019-05-19,15:05:00,DRY,4.70,14.35,33.0,773.00,1023.8
2019-05-19,15:10:00,DRY,5.57,14.13,33.0,773.00,1014.4
2019-05-19,15:15:00,DRY,4.65,14.05,34.0,773.00,1002.5
2019-05-19,15:20:00,DRY,4.47,14.00,36.3,773.00,989.5
2019-05-19,15:25:00,DRY,4.25,14.05,33.5,773.00,977.2
2019-05-19,15:30:00,DRY,5.03,13.67,38.0,773.00,966.4
2019-05-19,15:35:00,DRY,4.40,14.50,37.0,773.00,952.2
2019-05-19,15:40:00,DRY,5.20,13.67,41.0,773.00,939.6
2019-05-19,15:45:00,DRY,4.00,13.50,40.0,773.00,926.1
2019-05-19,15:50:00,DRY,4.93,13.37,37.3,773.00,911.8
2019-05-19,15:55:00,DRY,5.00,13.15,37.5,773.00,898.1
2019-05-19,16:00:00,DRY,4.90,13.43,36.3,773.00,883.9
2019-05-19,16:05:00,DRY,4.80,13.90,35.0,773.00,869.0
2019-05-19,16:10:00,DRY,5.50,13.20,36.7,773.00,853.8
2019-05-19,16:15:00,DRY,5.50,13.80,34.5,773.00,838.6
2019-05-19,16:20:00,DRY,5.40,13.53,34.7,773.00,823.3
2019-05-19,16:25:00,DRY,5.00,13.55,33.5,773.00,806.4
2019-05-19,16:30:00,DRY,5.07,13.37,33.3,773.00,790.0
2019-05-19,16:35:00,DRY,5.30,13.55,32.5,773.00,773.0
2019-05-19,16:40:00,DRY,5.57,13.43,31.7,773.00,755.9
2019-05-19,16:45:00,DRY,5.40,12.70,31.0,773.00,737.0
2019-05-19,16:50:00,DRY,5.27,12.57,41.7,773.00,720.2
2019-05-19,16:55:00,DRY,5.05,12.40,39.0,773.00,701.3
2019-05-19,17:00:00,DRY,5.67,12.57,29.7,773.00,683.3
2019-05-19,17:05:00,DRY,6.80,12.25,32.0,773.00,665.0
2019-05-19,17:10:00,DRY,6.90,12.47,30.7,773.00,645.4
2019-05-19,17:15:00,DRY,5.65,12.40,23.5,773.00,626.4
2019-05-19,17:20:00,DRY,7.03,12.27,23.3,773.00,607.0
2019-05-19,17:25:00,DRY,7.10,12.20,21.0,773.00,589.3
2019-05-19,17:30:00,DRY,7.20,12.13,26.3,773.00,567.6
2019-05-19,17:35:00,DRY,6.10,11.75,24.0,773.00,546.9
2019-05-19,17:40:00,DRY,7.73,11.73,19.3,773.00,527.2
2019-05-19,17:45:00,DRY,6.15,11.75,18.5,773.00,506.4
2019-05-19,17:50:00,DRY,7.17,11.77,22.0,773.00,486.8
2019-05-19,17:55:00,DRY,7.50,11.65,19.0,773.00,465.3
2019-05-19,18:00:00,DRY,7.57,11.77,17.0,773.00,445.2
2019-05-19,18:05:00,DRY,6.65,11.25,18.5,773.00,424.0
2019-05-19,18:10:00,DRY,5.73,11.23,20.3,773.00,402.5
2019-05-19,18:15:00,DRY,5.90,10.95,20.5,773.00,381.6
2019-05-19,18:20:00,DRY,4.63,11.07,18.7,773.00,359.9
2019-05-19,18:25:00,DRY,4.45,11.10,19.5,773.00,338.8
2019-05-19,18:30:00,DRY,6.17,10.87,19.3,773.00,319.2
2019-05-19,18:35:00,DRY,4.90,11.10,18.5,773.00,298.1
2019-05-19,18:40:00,DRY,5.53,10.87,19.3,773.00,276.1
2019-05-19,18:45:00,DRY,6.70,10.95,18.5,773.00,255.4
2019-05-19,18:50:00,DRY,5.47,10.47,21.3,773.00,235.3
2019-05-19,18:55:00,DRY,6.30,10.50,22.5,773.00,214.7
2019-05-19,19:00:00,DRY,7.37,10.20,26.3,773.00,195.5
2019-05-19,19:05:00,DRY,5.55,10.10,34.0,773.00,175.2
2019-05-19,19:10:00,DRY,7.13,10.33,37.7,773.00,157.1
2019-05-19,19:15:00,DRY,7.20,10.30,40.0,773.00,139.1
2019-05-19,19:20:00,DRY,7.43,10.23,39.3,773.00,115.6
2019-05-19,19:25:00,DRY,5.85,10.10,39.0,773.00,91.8
2019-05-19,19:30:00,DRY,6.30,10.03,40.0,773.00,69.3
2019-05-19,19:35:00,DRY,5.10,9.90,41.5,773.00,51.0
2019-05-19,19:40:00,DRY,5.53,9.70,41.0,773.00,35.6
2019-05-19,19:45:00,DRY,6.35,9.80,38.5,773.00,23.6
2019-05-19,19:50:00,DRY,6.67,9.97,33.0,773.00,15.1
2019-05-19,19:55:00,DRY,6.40,10.00,34.0,773.00,11.1
2019-05-19,20:00:00,DRY,6.07,9.47,37.3,773.00,7.4
2019-05-19,20:05:00,DRY,5.70,9.10,40.5,773.00,3.8
2019-05-19,20:10:00,DRY,7.27,9.00,41.3,773.00,2.5
2019-05-19,20:15:00,DRY,7.55,8.80,42.5,773.00,1.8
2019-05-19,20:20:00,DRY,7.00,8.60,43.5,773.00,1.2
2019-05-19,20:25:00,DRY,6.55,8.80,39.5,773.00,1.1
2019-05-19,20:30:00,DRY,6.97,8.87,34.7,773.00,1.7
2019-05-19,20:35:00,DRY,6.90,9.00,32.0,773.50,1.4
2019-05-19,20:40:00,DRY,6.80,8.97,34.3,774.00,1.2
2019-05-19,20:45:00,DRY,7.75,9.05,33.0,774.00,1.4
2019-05-19,20:50:00,DRY,9.10,9.50,29.3,773.33,0.9
2019-05-19,20:55:00,DRY,8.75,9.35,32.0,774.00,0.8
2019-05-19,21:00:00,DRY,8.03,8.93,36.3,774.00,1.0
2019-05-19,21:05:00,DRY,6.25,8.95,38.0,774.00,1.0
2019-05-19,21:10:00,DRY,7.37,9.20,33.3,774.00,1.7
2019-05-19,21:15:00,DRY,7.80,9.30,28.5,774.00,1.1
2019-05-19,21:20:00,DRY,6.67,9.43,27.0,774.00,0.9
2019-05-19,21:25:00,DRY,7.75,9.50,28.5,774.00,0.7
2019-05-19,21:30:00,DRY,7.67,9.60,27.0,774.00,0.9
2019-05-19,21:35:00,DRY,6.50,9.35,28.0,774.00,1.1
2019-05-19,21:40:00,DRY,7.40,9.27,27.7,774.00,0.8
2019-05-19,21:45:00,DRY,7.30,9.65,25.0,774.00,1.1
2019-05-19,21:50:00,DRY,7.10,9.60,23.7,774.00,0.7
2019-05-19,21:55:00,DRY,7.05,9.60,24.5,774.00,1.1
2019-05-19,22:00:00,DRY,7.17,9.53,24.7,774.00,1.3
2019-05-19,22:05:00,DRY,6.85,9.55,24.0,774.00,1.2
2019-05-19,22:10:00,DRY,7.67,9.50,24.0,774.00,1.1
2019-05-19,22:15:00,DRY,7.10,9.30,24.0,774.00,1.1
2019-05-19,22:20:00,DRY,6.20,9.20,24.0,774.00,1.1
2019-05-19,22:25:00,DRY,6.20,9.15,25.0,774.00,1.2
2019-05-19,22:30:00,DRY,5.83,9.17,24.3,774.00,1.3
2019-05-19,22:35:00,DRY,6.30,8.95,28.0,774.00,1.9
2019-05-19,22:40:00,DRY,5.63,9.00,26.0,774.00,1.3
2019-05-19,22:45:00,DRY,5.00,8.95,26.0,774.00,1.2
2019-05-19,22:50:00,DRY,5.93,9.10,24.3,774.00,1.1
2019-05-19,22:55:00,DRY,6.05,9.15,23.0,774.00,1.2
2019-05-19,23:00:00,DRY,5.33,9.23,23.7,774.00,1.1
2019-05-19,23:05:00,DRY,4.90,9.10,24.0,774.00,1.2
2019-05-19,23:10:00,DRY,5.33,8.97,25.0,774.00,1.2
2019-05-19,23:15:00,DRY,5.85,9.00,23.5,774.00,1.2
2019-05-19,23:20:00,DRY,5.27,8.97,23.7,774.00,1.2
2019-05-19,23:25:00,DRY,4.85,8.95,23.0,774.00,1.1
2019-05-19,23:30:00,DRY,5.83,8.97,23.0,774.00,1.3
2019-05-19,23:35:00,DRY,5.05,8.80,23.5,774.00,1.2
2019-05-19,23:40:00,DRY,4.63,8.70,24.0,774.00,1.2
2019-05-19,23:45:00,DRY,5.70,8.60,23.0,774.00,1.2
2019-05-19,23:50:00,DRY,6.73,8.70,23.0,774.00,1.1
2019-05-19,23:55:00,DRY,6.50,8.80,23.0,774.00,1.8
2019-05-20,00:00:00,DRY,5.27,8.80,23.0,774.00,1.1
2019-05-20,00:05:00,DRY,6.20,8.90,20.5,774.00,1.1
2019-05-20,00:10:00,DRY,5.87,9.00,20.0,774.00,1.6
2019-05-20,00:15:00,DRY,5.60,9.25,18.5,774.00,1.4
2019-05-20,00:20:00,DRY,5.90,8.93,20.3,774.00,1.1
2019-05-20,00:25:00,DRY,4.65,9.00,20.0,774.00,1.1
2019-05-20,00:30:00,DRY,5.07,9.10,16.7,774.00,1.4
2019-05-20,00:35:00,DRY,5.40,9.20,17.0,774.00,1.3
2019-05-20,00:40:00,DRY,5.20,9.13,16.3,774.00,1.1
2019-05-20,00:45:00,DRY,4.80,9.45,14.0,774.00,1.4
2019-05-20,00:50:00,DRY,5.43,9.50,12.0,773.00,1.1
2019-05-20,00:55:00,DRY,5.15,9.50,11.0,773.50,1.1
2019-05-20,01:00:00,DRY,5.13,9.60,10.3,773.00,1.2
2019-05-20,01:05:00,DRY,6.15,9.55,10.0,773.00,1.2
2019-05-20,01:10:00,DRY,5.90,9.40,12.0,773.00,0.9
2019-05-20,01:15:00,DRY,5.30,9.30,11.5,773.00,1.2
2019-05-20,01:20:00,DRY,4.23,9.37,10.7,773.00,1.2
2019-05-20,01:25:00,DRY,4.30,9.50,10.0,773.00,1.2
2019-05-20,01:30:00,DRY,5.50,9.40,9.7,773.00,1.7
2019-05-20,01:35:00,DRY,4.95,9.45,8.5,773.00,1.1
2019-05-20,01:40:00,DRY,4.77,9.50,9.3,773.00,1.4
2019-05-20,01:45:00,DRY,5.50,9.75,9.5,773.00,1.0
2019-05-20,01:50:00,DRY,5.23,9.67,8.0,773.00,1.1
2019-05-20,01:55:00,DRY,5.15,9.75,8.5,773.00,1.1
2019-05-20,02:00:00,DRY,4.90,9.57,8.0,773.00,1.3
2019-05-20,02:05:00,DRY,5.05,9.70,8.5,773.00,1.6
2019-05-20,02:10:00,DRY,4.97,9.73,9.0,773.00,1.3
2019-05-20,02:15:00,DRY,5.25,9.75,9.0,773.00,1.6
2019-05-20,02:20:00,DRY,5.03,9.87,8.3,773.00,1.5
2019-05-20,02:25:00,DRY,4.30,9.90,9.0,773.00,1.5
2019-05-20,02:30:00,DRY,4.40,9.83,9.0,773.00,1.4
2019-05-20,02:35:00,DRY,4.85,9.70,9.0,773.00,1.1
2019-05-20,02:40:00,DRY,4.43,9.63,9.0,773.00,1.3
2019-05-20,02:45:00,DRY,3.60,9.65,9.0,773.00,0.9
2019-05-20,02:50:00,DRY,3.67,10.07,7.7,773.00,1.4
2019-05-20,02:55:00,DRY,2.55,10.35,7.5,773.00,0.8
2019-05-20,03:00:00,DRY,4.73,10.13,8.0,773.00,1.3
2019-05-20,03:05:00,DRY,3.20,10.15,7.0,773.00,1.2
2019-05-20,03:10:00,DRY,2.77,9.93,8.3,773.00,1.1
2019-05-20,03:15:00,DRY,2.00,9.70,8.0,773.00,1.4
2019-05-20,03:20:00,DRY,3.47,9.87,8.3,772.67,0.8
2019-05-20,03:25:00,DRY,3.45,10.00,8.0,773.00,1.4
2019-05-20,03:30:00,DRY,3.63,10.13,8.7,772.33,1.3
2019-05-20,03:35:00,DRY,4.10,10.30,8.0,772.50,1.2
2019-05-20,03:40:00,DRY,4.77,10.30,7.3,772.00,1.2
2019-05-20,03:45:00,DRY,4.20,10.15,7.5,772.00,1.4
2019-05-20,03:50:00,DRY,4.17,10.33,7.0,772.00,1.4
2019-05-20,03:55:00,DRY,4.75,10.50,6.0,772.50,2.0
2019-05-20,04:00:00,DRY,3.73,10.33,6.0,772.33,1.4
2019-05-20,04:05:00,DRY,3.80,10.40,5.5,772.50,1.4
2019-05-20,04:10:00,DRY,4.17,10.13,5.3,772.00,1.2
2019-05-20,04:15:00,DRY,3.90,10.05,6.0,772.00,1.2
2019-05-20,04:20:00,DRY,4.63,9.97,6.3,772.00,1.2
2019-05-20,04:25:00,DRY,3.95,9.90,7.0,772.00,1.2
2019-05-20,04:30:00,DRY,4.03,9.87,7.0,772.00,1.4
2019-05-20,04:35:00,DRY,4.45,9.90,7.0,772.00,1.1
2019-05-20,04:40:00,DRY,4.70,9.90,7.7,772.00,1.1
2019-05-20,04:45:00,DRY,5.50,9.80,7.0,772.00,1.5
2019-05-20,04:50:00,DRY,5.13,9.63,7.0,772.00,0.9
2019-05-20,04:55:00,DRY,5.10,9.55,7.5,772.00,1.1
2019-05-20,05:00:00,DRY,4.80,9.43,7.7,772.00,1.3
2019-05-20,05:05:00,DRY,4.90,9.50,7.5,772.00,1.2
2019-05-20,05:10:00,DRY,4.40,9.30,8.0,772.00,1.3
2019-05-20,05:15:00,DRY,4.30,9.30,7.5,772.00,0.9
2019-05-20,05:20:00,DRY,4.10,9.07,8.0,772.00,1.2
2019-05-20,05:25:00,DRY,3.35,9.00,8.0,772.00,1.4
2019-05-20,05:30:00,DRY,4.13,8.93,8.7,772.00,1.3
2019-05-20,05:35:00,DRY,3.60,8.80,9.0,772.00,1.4
2019-05-20,05:40:00,DRY,3.60,8.87,8.7,772.00,1.2
2019-05-20,05:45:00,DRY,3.15,8.75,9.0,772.00,1.0
2019-05-20,05:50:00,DRY,4.37,8.70,9.0,772.00,1.4
2019-05-20,05:55:00,DRY,3.30,8.70,9.0,772.00,1.5
2019-05-20,06:00:00,DRY,3.00,8.60,9.0,772.00,3.2
2019-05-20,06:05:00,DRY,4.20,8.60,9.0,772.00,3.0
2019-05-20,06:10:00,DRY,4.40,8.63,9.3,772.67,3.9
2019-05-20,06:15:00,DRY,3.45,8.60,10.0,773.00,6.1
2019-05-20,06:20:00,DRY,4.17,8.67,10.0,773.00,13.0
2019-05-20,06:25:00,DRY,3.55,8.90,10.0,772.50,26.9
2019-05-20,06:30:00,DRY,3.60,9.13,9.7,773.00,42.7
2019-05-20,06:35:00,DRY,3.95,9.20,9.5,773.00,61.8
2019-05-20,06:40:00,DRY,5.30,9.80,7.3,773.00,85.2
2019-05-20,06:45:00,DRY,5.10,10.05,8.0,773.00,109.9
2019-05-20,06:50:00,DRY,4.83,10.23,6.7,773.00,128.7
2019-05-20,06:55:00,DRY,5.85,10.40,6.5,773.00,147.8
2019-05-20,07:00:00,DRY,5.10,10.47,7.0,773.00,167.2
2019-05-20,07:05:00,DRY,4.55,10.40,7.5,773.00,187.4
2019-05-20,07:10:00,DRY,4.33,10.67,6.3,773.00,208.8
2019-05-20,07:15:00,DRY,5.00,10.75,7.0,773.00,229.2
2019-05-20,07:20:00,DRY,4.73,10.90,6.3,773.00,251.3
2019-05-20,07:25:00,DRY,5.05,10.85,7.0,773.00,272.6
2019-05-20,07:30:00,DRY,3.80,10.83,7.0,773.00,293.8
2019-05-20,07:35:00,DRY,4.65,11.00,7.5,773.00,316.0
2019-05-20,07:40:00,DRY,3.80,11.13,7.0,773.00,338.1
2019-05-20,07:45:00,DRY,4.30,11.15,7.5,773.00,359.2
2019-05-20,07:50:00,DRY,5.07,11.33,6.3,773.00,381.6
2019-05-20,07:55:00,DRY,4.70,11.40,7.5,773.00,402.4
2019-05-20,08:00:00,DRY,5.03,11.37,7.0,773.00,423.8
2019-05-20,08:05:00,DRY,4.60,11.60,7.0,773.00,445.5
2019-05-20,08:10:00,DRY,4.07,11.70,7.0,773.00,466.9
2019-05-20,08:15:00,DRY,3.50,11.95,6.0,773.00,487.5
2019-05-20,08:20:00,DRY,4.33,11.90,6.7,773.00,509.1
2019-05-20,08:25:00,DRY,4.60,12.15,6.5,773.00,528.8
2019-05-20,08:30:00,DRY,3.87,12.30,6.3,773.00,549.9
2019-05-20,08:35:00,DRY,2.65,12.65,6.5,773.00,569.3
2019-05-20,08:40:00,DRY,3.63,12.70,6.0,773.00,591.6
2019-05-20,08:45:00,DRY,3.80,12.80,5.5,773.00,610.7
2019-05-20,08:50:00,DRY,4.33,12.83,5.7,773.00,630.4
2019-05-20,08:55:00,DRY,4.10,12.85,5.5,773.00,649.6
2019-05-20,09:00:00,DRY,3.43,13.07,5.7,773.00,668.5
2019-05-20,09:05:00,DRY,3.30,13.35,6.0,773.00,687.2
2019-05-20,09:10:00,DRY,3.80,13.53,5.7,773.00,705.3
2019-05-20,09:15:00,DRY,3.85,13.40,6.5,773.00,723.4
2019-05-20,09:20:00,DRY,4.23,13.40,6.0,773.00,741.6
2019-05-20,09:25:00,DRY,4.95,13.60,6.5,773.00,759.7
2019-05-20,09:30:00,DRY,3.60,13.77,6.7,773.00,776.2
2019-05-20,09:35:00,DRY,3.95,13.65,6.5,773.00,792.8
2019-05-20,09:40:00,DRY,3.50,13.73,6.3,773.00,809.9
2019-05-20,09:45:00,DRY,4.35,13.85,6.5,773.00,827.0
2019-05-20,09:50:00,DRY,4.73,13.93,6.7,773.00,843.9
2019-05-20,09:55:00,DRY,3.90,14.15,6.0,773.00,858.1
2019-05-20,10:00:00,DRY,2.93,14.20,7.3,773.00,872.6
2019-05-20,10:05:00,DRY,3.95,14.20,8.5,773.00,887.2
2019-05-20,10:10:00,DRY,3.93,14.50,8.0,773.00,902.4
2019-05-20,10:15:00,DRY,3.00,14.80,6.5,773.00,916.0
2019-05-20,10:20:00,DRY,2.73,14.83,7.0,773.00,929.5
2019-05-20,10:25:00,DRY,3.00,14.90,6.0,773.00,943.5
2019-05-20,10:30:00,DRY,2.50,15.20,7.0,773.00,957.2
2019-05-20,10:35:00,DRY,3.20,14.90,11.5,773.00,970.4
2019-05-20,10:40:00,DRY,2.97,15.10,11.7,773.00,982.8
2019-05-20,10:45:00,DRY,3.20,15.55,8.0,773.50,995.5
2019-05-20,10:50:00,DRY,3.10,15.57,14.7,773.00,1005.8
2019-05-20,10:55:00,DRY,3.65,15.60,15.0,773.00,1017.7
2019-05-20,11:00:00,DRY,3.23,15.43,13.0,773.00,1028.1
2019-05-20,11:05:00,DRY,3.35,15.65,13.0,773.00,1039.2
2019-05-20,11:10:00,DRY,3.30,15.73,10.7,773.33,1048.6
2019-05-20,11:15:00,DRY,3.25,16.00,12.5,773.50,1058.5
2019-05-20,11:20:00,DRY,2.90,16.07,11.3,773.33,1068.9
2019-05-20,11:25:00,DRY,3.80,16.65,13.0,774.00,1076.2
2019-05-20,11:30:00,DRY,2.17,16.23,9.3,774.00,1084.7
2019-05-20,11:35:00,DRY,3.90,16.40,14.0,774.00,1092.2
2019-05-20,11:40:00,DRY,3.60,16.27,13.3,773.67,1099.4
2019-05-20,11:45:00,DRY,4.35,15.75,14.5,773.50,1104.5
2019-05-20,11:50:00,DRY,2.70,15.97,11.3,774.00,1112.0
2019-05-20,11:55:00,DRY,3.35,16.00,13.0,774.00,1118.1
2019-05-20,12:00:00,DRY,3.95,16.25,17.0,773.50,1123.0
2019-05-20,12:05:00,DRY,2.95,15.50,20.0,774.00,1128.6
2019-05-20,12:10:00,DRY,2.60,15.13,18.0,774.00,1133.5
2019-05-20,12:15:00,DRY,5.00,14.90,21.0,774.00,1135.8
2019-05-20,12:20:00,DRY,2.87,15.13,21.3,774.00,1138.0
2019-05-20,12:25:00,DRY,3.00,15.55,23.5,774.00,1141.2
2019-05-20,12:30:00,DRY,3.47,15.60,23.0,774.00,1143.4
2019-05-20,12:35:00,DRY,2.75,15.65,15.0,774.00,1146.6
2019-05-20,12:40:00,DRY,3.03,15.67,21.7,774.00,1149.3
2019-05-20,12:45:00,DRY,3.05,15.55,20.0,774.00,1149.0
2019-05-20,12:50:00,DRY,3.70,15.97,18.7,774.00,1150.1
2019-05-20,12:55:00,DRY,2.25,16.05,23.5,774.00,1148.2
2019-05-20,13:00:00,DRY,3.13,14.93,18.7,774.00,1152.1
2019-05-20,13:05:00,DRY,3.05,15.20,19.0,774.00,1152.8
2019-05-20,13:10:00,DRY,3.50,15.20,21.0,774.00,1151.0
2019-05-20,13:15:00,DRY,2.80,16.20,16.0,774.00,1150.8
2019-05-20,13:20:00,DRY,3.27,15.57,17.3,774.00,1151.0
2019-05-20,13:25:00,DRY,3.60,15.95,15.0,774.00,1152.1
2019-05-20,13:30:00,DRY,3.50,15.80,14.0,774.00,1151.3
2019-05-20,13:35:00,DRY,5.60,15.00,13.0,774.00,1147.0
2019-05-20,13:40:00,DRY,3.17,15.20,20.7,773.67,1144.7
2019-05-20,13:45:00,DRY,3.05,15.50,24.0,774.00,1144.4
2019-05-20,13:50:00,DRY,3.67,15.43,21.3,773.67,1140.2
2019-05-20,13:55:00,DRY,3.30,15.10,23.5,774.00,1135.2
2019-05-20,14:00:00,DRY,3.60,15.70,23.0,773.33,1132.8
2019-05-20,14:05:00,DRY,3.00,15.20,22.5,773.50,1128.0
2019-05-20,14:10:00,DRY,3.40,14.83,21.0,773.00,1124.3
2019-05-20,14:15:00,DRY,3.30,15.35,22.5,774.00,1117.8
2019-05-20,14:20:00,DRY,4.93,15.70,21.0,773.33,1113.4
2019-05-20,14:25:00,DRY,4.10,15.25,23.5,773.50,1105.8
2019-05-20,14:30:00,DRY,3.63,15.17,25.3,773.33,1100.0
2019-05-20,14:35:00,DRY,2.90,14.60,27.5,773.00,1091.8
2019-05-20,14:40:00,DRY,4.00,14.70,23.0,773.00,1086.2
2019-05-20,14:45:00,DRY,2.80,15.45,23.5,773.50,1076.9
2019-05-20,14:50:00,DRY,4.35,15.35,24.0,773.00,1070.2
2019-05-20,14:55:00,DRY,3.35,15.10,24.5,773.00,1056.6
2019-05-20,15:00:00,DRY,3.20,15.03,19.0,773.33,1049.9
2019-05-20,15:05:00,DRY,3.25,15.35,16.5,774.00,1040.1
2019-05-20,15:10:00,DRY,4.30,15.50,16.7,773.00,1027.4
2019-05-20,15:15:00,DRY,4.05,15.65,27.0,773.00,1013.5
2019-05-20,15:20:00,DRY,3.63,15.47,25.3,773.00,1005.3
2019-05-20,15:25:00,DRY,2.00,15.55,19.5,773.00,992.5
2019-05-20,15:30:00,DRY,3.50,15.50,17.5,773.00,982.1
2019-05-20,15:35:00,DRY,2.35,15.65,19.5,773.00,966.6
2019-05-20,15:40:00,DRY,2.97,15.90,15.0,773.00,954.2
2019-05-20,15:45:00,DRY,3.45,16.30,12.0,773.00,939.7
2019-05-20,15:50:00,DRY,2.40,16.03,16.0,773.33,926.2
2019-05-20,15:55:00,DRY,2.75,16.35,10.5,773.00,911.7
2019-05-20,16:00:00,DRY,3.47,15.83,21.7,773.00,895.3
2019-05-20,16:05:00,DRY,2.65,16.15,25.0,773.00,881.3
2019-05-20,16:10:00,DRY,2.87,15.60,20.3,773.00,865.1
2019-05-20,16:15:00,DRY,1.25,15.55,19.0,773.00,848.3
2019-05-20,16:20:00,DRY,3.33,15.83,21.7,773.00,834.8
2019-05-20,16:25:00,DRY,3.85,15.60,19.0,773.00,817.5
2019-05-20,16:30:00,DRY,3.40,15.47,19.0,773.00,800.0
2019-05-20,16:35:00,DRY,4.40,15.20,14.0,773.00,784.7
2019-05-20,16:40:00,DRY,3.47,15.30,18.0,773.00,767.1
2019-05-20,16:45:00,DRY,3.85,15.60,17.0,773.00,749.0
2019-05-20,16:50:00,DRY,3.73,15.67,14.7,773.00,731.3
2019-05-20,16:55:00,DRY,3.10,15.20,12.5,773.00,712.3
2019-05-20,17:00:00,DRY,2.70,15.10,14.0,773.00,695.4
2019-05-20,17:05:00,DRY,1.45,15.05,20.0,773.00,676.6
2019-05-20,17:10:00,DRY,2.97,14.77,18.3,773.00,658.5
2019-05-20,17:15:00,DRY,2.30,14.30,14.0,773.00,632.9
2019-05-20,17:20:00,DRY,2.80,14.27,17.7,773.00,617.3
2019-05-20,17:25:00,DRY,1.85,14.10,17.5,773.00,597.8
2019-05-20,17:30:00,DRY,2.83,14.37,13.0,773.00,578.1
2019-05-20,17:35:00,DRY,4.45,14.50,10.5,773.00,558.4
2019-05-20,17:40:00,DRY,4.77,13.97,9.0,773.00,538.4
2019-05-20,17:45:00,DRY,4.80,14.35,8.0,773.00,519.2
2019-05-20,17:50:00,DRY,3.80,14.07,8.0,773.00,497.4
2019-05-20,17:55:00,DRY,3.55,14.05,6.5,773.00,476.2
2019-05-20,18:00:00,DRY,3.53,14.07,8.0,773.00,455.5
2019-05-20,18:05:00,DRY,2.95,14.00,9.0,773.00,434.5
2019-05-20,18:10:00,DRY,3.37,14.10,7.3,773.00,412.3
2019-05-20,18:15:00,DRY,4.25,13.85,7.0,773.00,390.3
2019-05-20,18:20:00,DRY,4.33,13.93,8.0,773.00,369.9
2019-05-20,18:25:00,DRY,3.65,14.05,8.0,773.00,347.9
2019-05-20,18:30:00,DRY,3.73,14.10,7.7,773.00,326.7